GW7021 Weather Reports


time (UTC)temp
F
wind
direction
speed
knots
gust
knots
rain 1hr
in
rain 24hr
in
rain mn
in
humidity
%
barometer
mb
20260508064504 61 184 1.7 2.6 0.00 0.00 0.00 83 1021.0
20260508064003 61 103 1.7 2.6 0.00 0.00 0.00 81 1020.9
20260508063504 61 80 1.7 2.6 0.00 0.00 0.00 80 1020.7
20260508063004 60 183 0.9 1.7 0.00 0.00 0.00 80 1020.6
20260508062004 60 236 1.7 7.0 0.00 0.00 0.00 78 1020.7
20260508061504 60 237 5.2 13.0 0.00 0.00 0.00 76 1020.7
20260508061004 61 314 7.0 13.0 0.00 0.00 0.00 74 1020.6
20260508060503 60 4 5.2 12.2 0.00 0.00 0.00 77 1020.4
20260508060004 60 333 3.5 5.2 0.00 0.00 0.00 78 1020.4
20260508055504 60 340 2.6 3.5 0.00 0.00 0.00 79 1020.4
20260508054504 59 77 1.7 2.6 0.00 0.00 0.00 80 1020.1
20260508054004 59 125 0.9 2.6 0.00 0.00 0.00 80 1019.9
20260508053504 59 166 0.9 1.7 0.00 0.00 0.00 81 1020.0
20260508053003 59 209 0.9 1.7 0.00 0.00 0.00 82 1019.7
20260508052503 59 159 0.9 1.7 0.00 0.00 0.00 81 1019.5
20260508052004 58 95 0.9 1.7 0.00 0.00 0.00 80 1019.1
20260508051504 58 118 1.7 1.7 0.00 0.00 0.00 81 1018.9
20260508051004 58 226 1.7 3.5 0.00 0.00 0.00 81 1018.9
20260508050504 58 329 2.6 3.5 0.00 0.00 0.00 81 1018.7
20260508050004 58 54 2.6 3.5 0.00 0.00 0.00 81 1018.7
20260508045004 57 73 1.7 2.6 0.00 0.00 0.00 83 1018.5
20260508043504 56 126 0.9 1.7 0.00 0.00 0.00 85 1018.3
20260508043004 56 125 1.7 1.7 0.00 0.00 0.00 85 1017.9
20260508042504 56 127 1.7 1.7 0.00 0.00 0.00 85 1018.0
20260508042004 56 143 1.7 1.7 0.00 0.00 0.00 85 1017.8
20260508041004 56 135 0.9 1.7 0.00 0.00 0.00 85 1017.9
20260508040004 56 1 0.0 0.9 0.00 0.00 0.00 86 1017.8
20260508035504 55 1 0.0 0.9 0.00 0.00 0.00 86 1017.4
20260508034504 56 157 0.9 1.7 0.00 0.00 0.00 86 1017.4
20260508034004 55 149 0.9 1.7 0.00 0.00 0.00 87 1017.1
20260508033504 55 135 0.0 1.7 0.00 0.00 0.00 87 1017.1
20260508033004 55 110 0.9 1.7 0.00 0.00 0.00 87 1017.1
20260508032504 55 86 0.9 1.7 0.00 0.00 0.00 86 1017.1
20260508032004 55 43 0.0 1.7 0.00 0.00 0.00 86 1017.0
20260508031504 55 270 0.9 3.5 0.00 0.00 0.00 86 1017.0
20260508031004 55 270 1.7 3.5 0.00 0.00 0.00 85 1017.0
20260508025504 56 45 0.0 0.9 0.00 0.00 0.00 83 1016.9
20260508024504 56 117 0.0 1.7 0.00 0.00 0.00 83 1016.9
20260508024004 56 59 1.7 3.5 0.00 0.00 0.00 85 1016.9
20260508023504 55 48 1.7 3.5 0.00 0.00 0.00 86 1016.9
20260508023004 55 63 0.9 1.7 0.00 0.00 0.00 85 1016.9
20260508022504 55 181 0.0 1.7 0.00 0.00 0.00 84 1017.1
20260508021504 56 122 1.7 1.7 0.00 0.00 0.00 84 1017.1
20260508020505 56 135 0.9 1.7 0.00 0.00 0.00 84 1017.3
20260508020004 56 151 0.0 0.9 0.00 0.00 0.00 85 1017.3
20260508015504 55 135 0.9 1.7 0.00 0.00 0.00 87 1017.4
20260508015004 55 97 0.9 1.7 0.00 0.00 0.00 87 1017.3
20260508014504 55 334 0.9 1.7 0.00 0.00 0.00 86 1017.3
20260508014004 55 331 0.9 1.7 0.00 0.00 0.00 84 1017.6
20260508013504 56 19 0.9 1.7 0.00 0.00 0.00 83 1017.6
20260508013005 56 86 0.9 1.7 0.00 0.00 0.00 83 1017.7
20260508012004 57 314 0.0 1.7 0.00 0.00 0.00 82 1017.7
20260508011504 57 314 0.9 1.7 0.00 0.00 0.00 83 1017.7
20260508011004 56 334 0.9 1.7 0.00 0.00 0.00 84 1017.7
20260508010504 56 353 0.9 1.7 0.00 0.00 0.00 83 1017.7
20260508010004 56 28 0.9 1.7 0.00 0.00 0.00 82 1017.7
20260508005504 57 27 1.7 1.7 0.00 0.00 0.00 82 1017.8
20260508005004 56 54 0.9 1.7 0.00 0.00 0.00 82 1017.9
20260508004004 56 61 1.7 2.6 0.00 0.00 0.00 83 1017.9
20260508003505 56 38 0.9 2.6 0.00 0.00 0.00 82 1017.9
20260508003005 56 0 0.0 0.0 0.00 0.00 0.00 82 1017.9
20260508002504 57 176 0.0 1.7 0.00 0.00 0.00 82 1017.9
20260508001504 57 117 1.7 1.7 0.00 0.00 0.00 81 1017.9
20260508001004 57 99 1.7 1.7 0.00 0.00 0.00 82 1017.8
20260508000504 57 96 0.9 1.7 0.00 0.00 0.00 81 1017.9
20260508000005 58 67 0.9 1.7 0.00 0.00 0.00 81 1018.3
20260507234504 57 10 0.9 1.7 0.00 0.00 0.00 82 1018.3
20260507234004 57 42 0.9 1.7 0.00 0.00 0.00 82 1018.5
20260507233504 57 48 1.7 3.5 0.00 0.00 0.00 82 1018.4
20260507233005 57 51 1.7 3.5 0.00 0.00 0.00 83 1018.4
20260507232505 57 46 0.9 1.7 0.00 0.00 0.00 83 1018.4
20260507232004 57 46 0.9 1.7 0.00 0.00 0.00 84 1018.7
20260507231504 57 80 0.9 1.7 0.00 0.00 0.00 84 1018.7
20260507231004 57 80 1.7 1.7 0.00 0.00 0.00 84 1018.6
20260507230005 57 230 0.9 1.7 0.00 0.00 0.00 82 1018.8
20260507225004 58 246 0.9 1.7 0.00 0.00 0.00 80 1018.9
20260507224005 58 43 1.7 2.6 0.00 0.00 0.00 82 1018.9
20260507223504 57 86 0.9 2.6 0.00 0.00 0.00 81 1018.9
20260507222504 58 123 2.6 2.6 0.00 0.00 0.00 80 1018.9
20260507222004 58 154 1.7 2.6 0.00 0.00 0.00 81 1018.8
20260507221504 58 144 1.7 2.6 0.00 0.00 0.00 81 1019.0
20260507221004 58 102 1.7 2.6 0.00 0.00 0.00 82 1019.0
20260507220505 58 78 1.7 1.7 0.00 0.00 0.00 83 1019.0
20260507220005 58 57 0.9 1.7 0.00 0.00 0.00 83 1019.1
20260507215505 58 55 0.9 1.7 0.00 0.00 0.00 83 1019.1
20260507215004 58 65 0.9 1.7 0.00 0.00 0.00 83 1019.2
20260507214504 58 129 0.9 1.7 0.00 0.00 0.00 83 1019.2
20260507214005 58 125 0.9 1.7 0.00 0.00 0.00 83 1019.3
20260507213505 58 97 0.9 1.7 0.00 0.00 0.00 83 1019.2
20260507213005 58 106 0.9 1.7 0.00 0.00 0.00 83 1019.3
20260507212004 59 89 0.9 1.7 0.00 0.00 0.00 81 1019.3
20260507211505 59 55 0.9 1.7 0.00 0.00 0.00 82 1019.3
20260507211005 58 50 0.9 1.7 0.00 0.00 0.00 83 1019.2
20260507210504 58 247 0.0 0.9 0.00 0.00 0.00 82 1019.5
20260507210008 59 355 0.0 1.7 0.00 0.00 0.00 82 1019.5
20260507205504 59 66 0.9 1.7 0.00 0.00 0.00 82 1019.6
20260507204505 59 58 0.9 1.7 0.00 0.00 0.00 81 1019.5
20260507204005 59 92 1.7 2.6 0.00 0.00 0.00 81 1019.5
20260507203005 60 67 0.0 1.7 0.00 0.00 0.00 80 1019.4
20260507202505 60 1 0.0 0.9 0.00 0.00 0.00 81 1019.6
20260507202005 59 96 0.9 1.7 0.00 0.00 0.00 82 1019.4
20260507201005 59 129 0.9 1.7 0.00 0.00 0.00 81 1019.5
20260507200504 59 131 0.0 1.7 0.00 0.00 0.00 82 1019.4
20260507200004 59 35 0.9 2.6 0.00 0.00 0.00 82 1019.4
20260507195504 59 42 1.7 2.6 0.00 0.00 0.00 81 1019.6
20260507194504 59 94 2.6 3.5 0.00 0.00 0.00 80 1019.4
20260507194004 60 112 2.6 3.5 0.00 0.00 0.00 81 1019.3
20260507193505 59 124 2.6 2.6 0.00 0.00 0.00 81 1019.2
20260507192505 59 114 0.9 1.7 0.00 0.00 0.00 83 1019.2
20260507192005 59 76 0.9 1.7 0.00 0.00 0.00 83 1019.1
20260507191005 59 98 0.0 1.7 0.00 0.00 0.00 82 1019.0
20260507190504 60 90 0.9 1.7 0.00 0.00 0.00 82 1018.9
20260507185504 60 111 1.7 1.7 0.00 0.00 0.00 81 1018.7
20260507185004 60 135 0.9 1.7 0.00 0.00 0.00 80 1018.7
20260507184505 61 135 0.9 1.7 0.00 0.00 0.00 80 1018.8
20260507184005 61 135 0.9 1.7 0.00 0.00 0.00 80 1018.8
20260507183505 61 135 0.0 0.9 0.00 0.00 0.00 81 1018.6
20260507183005 60 135 0.9 1.7 0.00 0.00 0.00 81 1018.4
20260507182504 61 119 0.9 1.7 0.00 0.00 0.00 80 1018.2
20260507182005 61 69 0.9 1.7 0.00 0.00 0.00 79 1018.4
20260507181505 62 54 0.9 1.7 0.00 0.00 0.00 78 1018.4
20260507181005 62 85 0.9 1.7 0.00 0.00 0.00 78 1018.4
20260507180505 62 89 0.9 1.7 0.00 0.00 0.00 77 1018.5
20260507175505 63 111 1.7 2.6 0.00 0.00 0.00 77 1018.3
20260507175005 63 90 0.9 1.7 0.00 0.00 0.00 75 1018.3
20260507174504 64 45 0.0 0.9 0.00 0.00 0.00 71 1018.5
20260507174005 64 45 0.0 0.9 0.00 0.00 0.00 71 1018.2
20260507173505 64 28 0.0 0.9 0.00 0.00 0.00 71 1018.2
20260507173006 65 314 0.0 0.9 0.00 0.00 0.00 70 1018.2
20260507172505 66 181 0.0 0.9 0.00 0.00 0.00 68 1018.4
20260507171505 67 339 0.9 1.7 0.00 0.00 0.00 66 1018.3
20260507171005 67 293 0.9 1.7 0.00 0.00 0.00 66 1018.4
20260507170505 67 277 0.9 1.7 0.00 0.00 0.00 64 1018.3
20260507170005 67 323 1.7 2.6 0.00 0.00 0.00 64 1018.3
20260507165505 68 327 1.7 2.6 0.00 0.00 0.00 63 1018.2
20260507165005 68 296 2.6 2.6 0.00 0.00 0.00 63 1018.1
20260507164505 68 306 2.6 3.5 0.00 0.00 0.00 62 1018.1
20260507163505 69 304 4.3 4.3 0.00 0.00 0.00 62 1018.3
20260507163005 69 309 3.5 4.3 0.00 0.00 0.00 60 1018.2
20260507162005 69 312 2.6 2.6 0.00 0.00 0.00 60 1018.0
20260507161505 69 311 1.7 2.6 0.00 0.00 0.00 60 1018.1
20260507161005 69 323 1.7 2.6 0.00 0.00 0.00 58 1018.2
20260507160505 70 310 2.6 3.5 0.00 0.00 0.00 57 1018.0
20260507160005 70 298 2.6 3.5 0.00 0.00 0.00 57 1018.1
20260507155005 72 228 2.6 4.3 0.00 0.00 0.00 55 1018.0
20260507154505 71 225 4.3 6.1 0.00 0.00 0.00 56 1017.9
20260507154005 71 231 5.2 7.8 0.00 0.00 0.00 57 1017.9
20260507153506 71 243 5.2 7.8 0.00 0.00 0.00 57 1018.3
20260507153005 71 248 3.5 5.2 0.00 0.00 0.00 57 1018.3
20260507151505 70 165 4.3 5.2 0.00 0.00 0.00 56 1018.1
20260507151005 70 142 5.2 7.0 0.00 0.00 0.00 56 1017.9
20260507150505 70 150 5.2 7.0 0.00 0.00 0.00 55 1018.0
20260507150006 70 153 5.2 7.0 0.00 0.00 0.00 54 1018.2
20260507145506 70 143 5.2 7.0 0.00 0.00 0.00 54 1018.1
20260507145005 71 143 5.2 6.1 0.00 0.00 0.00 53 1018.1
20260507144505 71 144 5.2 6.1 0.00 0.00 0.00 52 1018.0
20260507143503 72 171 3.5 6.1 0.00 0.00 0.00 51 1018.3
20260507143003 72 167 5.2 7.0 0.00 0.00 0.00 50 1018.2
20260507142503 72 178 5.2 7.0 0.00 0.00 0.00 50 1018.3
20260507142003 72 185 5.2 7.8 0.00 0.00 0.00 50 1018.2
20260507141502 72 184 5.2 7.8 0.00 0.00 0.00 50 1018.3
20260507140503 72 162 5.2 7.8 0.00 0.00 0.00 45 1018.2
20260507140003 72 144 7.8 9.6 0.00 0.00 0.00 48 1018.1
20260507135503 72 154 8.7 9.6 0.00 0.00 0.00 44 1018.0
20260507135003 73 169 8.7 9.6 0.00 0.00 0.00 43 1018.1
20260507134503 73 171 7.8 8.7 0.00 0.00 0.00 42 1018.1
20260507133503 73 156 9.6 10.4 0.00 0.00 0.00 41 1018.1
20260507133003 74 174 9.6 12.2 0.00 0.00 0.00 41 1018.2
20260507132503 73 162 10.4 12.2 0.00 0.00 0.00 42 1018.1
20260507131503 74 165 11.3 13.9 0.00 0.00 0.00 41 1017.9
20260507131003 74 150 11.3 13.9 0.00 0.00 0.00 40 1018.0
20260507130004 74 148 11.3 13.0 0.00 0.00 0.00 41 1018.1
20260507125503 75 162 10.4 13.9 0.00 0.00 0.00 42 1018.1
20260507125004 75 151 10.4 13.9 0.00 0.00 0.00 42 1018.3
20260507124503 74 143 10.4 13.0 0.00 0.00 0.00 46 1018.4
20260507124004 74 143 10.4 13.0 0.00 0.00 0.00 46 1018.4
20260507123503 74 121 10.4 13.0 0.00 0.00 0.00 49 1018.6
20260507123003 74 122 10.4 12.2 0.00 0.00 0.00 50 1018.6
20260507122503 74 152 9.6 11.3 0.00 0.00 0.00 51 1018.5
20260507122004 73 162 9.6 13.0 0.00 0.00 0.00 50 1018.3
20260507121503 73 165 9.6 13.0 0.00 0.00 0.00 48 1018.5
20260507121003 74 155 10.4 12.2 0.00 0.00 0.00 48 1018.6
20260507120004 74 177 12.2 14.8 0.00 0.00 0.00 48 1018.6
20260507115503 74 167 12.2 14.8 0.00 0.00 0.00 47 1018.6
20260507115003 73 154 12.2 14.8 0.00 0.00 0.00 50 1018.6
20260507114503 73 169 11.3 13.0 0.00 0.00 0.00 49 1018.5
20260507114004 73 188 10.4 12.2 0.00 0.00 0.00 48 1018.4
20260507113503 73 182 9.6 11.3 0.00 0.00 0.00 49 1018.5
20260507112503 73 150 9.6 13.0 0.00 0.00 0.00 48 1018.6
20260507112003 73 147 10.4 13.0 0.00 0.00 0.00 45 1018.6
20260507111003 74 144 10.4 13.0 0.00 0.00 0.00 43 1018.5
20260507110503 74 152 10.4 14.8 0.00 0.00 0.00 42 1018.5
20260507110003 74 147 11.3 14.8 0.00 0.00 0.00 40 1018.7
20260507105503 74 146 11.3 13.0 0.00 0.00 0.00 41 1018.8
20260507104503 74 152 10.4 13.0 0.00 0.00 0.00 40 1018.6
20260507103504 74 134 11.3 14.8 0.00 0.00 0.00 40 1018.7
20260507102504 74 148 10.4 13.0 0.00 0.00 0.00 42 1018.9
20260507102003 74 138 11.3 13.0 0.00 0.00 0.00 42 1018.8
20260507101503 75 139 11.3 13.0 0.00 0.00 0.00 40 1018.7
20260507101003 75 148 10.4 13.0 0.00 0.00 0.00 41 1018.8
20260507100503 74 152 10.4 13.0 0.00 0.00 0.00 40 1018.7
20260507100004 74 145 10.4 13.0 0.00 0.00 0.00 39 1018.8
20260507095003 74 137 10.4 13.0 0.00 0.00 0.00 40 1018.4
20260507094503 75 144 10.4 12.2 0.00 0.00 0.00 39 1018.5
20260507093503 75 168 8.7 10.4 0.00 0.00 0.00 40 1018.3
20260507092503 75 181 8.7 12.2 0.00 0.00 0.00 40 1018.4
20260507092004 75 162 9.6 10.4 0.00 0.00 0.00 40 1018.5
20260507091004 76 172 10.4 12.2 0.00 0.00 0.00 37 1018.4
20260507090504 77 167 10.4 12.2 0.00 0.00 0.00 35 1018.3
20260507090004 77 165 9.6 11.3 0.00 0.00 0.00 34 1018.3
20260507085503 77 151 10.4 13.0 0.00 0.00 0.00 36 1018.3
20260507085003 76 133 10.4 13.0 0.00 0.00 0.00 35 1018.4
20260507084503 77 148 9.6 11.3 0.00 0.00 0.00 35 1018.3
20260507083503 77 173 7.8 9.6 0.00 0.00 0.00 35 1018.3
20260507082503 76 156 7.8 9.6 0.00 0.00 0.00 36 1018.7
20260507081503 75 136 7.8 9.6 0.00 0.00 0.00 36 1018.4
20260507080504 75 150 6.1 7.0 0.00 0.00 0.00 37 1018.4
20260507080004 75 163 6.1 7.0 0.00 0.00 0.00 37 1018.5
20260507075503 75 148 6.1 7.8 0.00 0.00 0.00 40 1018.5
20260507075004 74 158 7.0 7.8 0.00 0.00 0.00 38 1018.5
20260507074004 74 169 6.1 7.0 0.00 0.00 0.00 37 1018.3
20260507073504 74 149 6.1 7.0 0.00 0.00 0.00 38 1018.2
20260507073004 74 170 7.0 8.7 0.00 0.00 0.00 39 1018.2
20260507072503 74 187 7.0 8.7 0.00 0.00 0.00 40 1018.4
20260507072003 73 177 7.0 8.7 0.00 0.00 0.00 41 1018.4
20260507071503 73 183 6.1 7.0 0.00 0.00 0.00 41 1018.4
20260507070008 73 200 3.5 4.3 0.00 0.00 0.00 42 1018.2
20260507065504 72 191 3.5 4.3 0.00 0.00 0.00 42 1018.2